Time,TemperatureF,DewpointF,PressureIn,WindDirection,WindDirectionDegrees,WindSpeedMPH,WindSpeedGustMPH,Humidity,HourlyPrecipIn,Conditions,Clouds,dailyrainin,SolarRadiationWatts/m^2,SoftwareType,DateUTC
2013-08-12 00:01:00,82.3,75.9,30.08,ENE,71,0.0,1.0,81,0.00,,SCT023CU,0.00,125.00,VWS V14.01,2013-08-12 04:01:00,
2013-08-12 00:04:00,82.3,75.9,30.08,ENE,71,0.0,1.0,81,0.00,,SCT023CU,0.00,125.00,VWS V14.01,2013-08-12 04:04:00,
2013-08-12 00:09:00,82.3,75.9,30.07,ENE,71,0.0,1.0,81,0.00,,SCT023CU,0.00,125.00,VWS V14.01,2013-08-12 04:09:00,
2013-08-12 00:14:00,82.2,75.8,30.08,ENE,71,0.0,1.0,81,0.00,,SCT023CU,0.00,125.00,VWS V14.01,2013-08-12 04:14:00,
2013-08-12 00:19:00,82.1,75.7,30.08,ENE,71,0.0,2.0,81,0.00,,SCT023CU,0.00,125.00,VWS V14.01,2013-08-12 04:19:00,
2013-08-12 00:24:00,82.1,75.7,30.07,ENE,71,0.0,1.0,81,0.00,,SCT023CU,0.00,125.00,VWS V14.01,2013-08-12 04:24:00,
2013-08-12 00:29:00,82.0,75.6,30.08,ENE,72,0.0,1.0,81,0.00,,SCT023CU,0.00,125.00,VWS V14.01,2013-08-12 04:29:00,
2013-08-12 00:34:00,82.0,75.6,30.07,ENE,71,0.0,1.0,81,0.00,,SCT023CU,0.00,125.00,VWS V14.01,2013-08-12 04:34:00,
2013-08-12 00:39:00,81.9,75.5,30.07,ENE,71,0.0,1.0,81,0.00,,SCT023CU,0.00,125.00,VWS V14.01,2013-08-12 04:39:00,
2013-08-12 00:44:00,81.8,75.8,30.07,ENE,71,0.0,1.0,82,0.00,,SCT023CU,0.00,125.00,VWS V14.01,2013-08-12 04:44:00,
2013-08-12 00:49:00,81.8,75.4,30.07,ENE,71,0.0,1.0,81,0.00,,SCT023CU,0.00,125.00,VWS V14.01,2013-08-12 04:49:00,
2013-08-12 00:54:00,81.7,75.7,30.07,ENE,71,0.0,2.0,82,0.00,,SCT023CU,0.00,125.00,VWS V14.01,2013-08-12 04:54:00,
2013-08-12 00:59:00,81.6,75.2,30.07,ENE,71,0.0,1.0,81,0.00,,SCT023CU,0.00,125.00,VWS V14.01,2013-08-12 04:59:00,
2013-08-12 01:04:00,81.6,75.6,30.07,ENE,71,0.0,1.0,82,0.00,,SCT023CU,0.00,125.00,VWS V14.01,2013-08-12 05:04:00,
2013-08-12 01:09:00,81.5,75.5,30.07,ENE,72,1.0,1.0,82,0.00,,SCT023CU,0.00,125.00,VWS V14.01,2013-08-12 05:09:00,
2013-08-12 01:14:00,81.4,75.4,30.07,ENE,71,0.0,1.0,82,0.00,,SCT023CU,0.00,125.00,VWS V14.01,2013-08-12 05:14:00,
2013-08-12 01:19:00,81.4,75.4,30.07,ENE,71,0.0,1.0,82,0.00,,SCT023CU,0.00,125.00,VWS V14.01,2013-08-12 05:19:00,
2013-08-12 01:24:00,81.3,75.3,30.06,ENE,72,0.0,1.0,82,0.00,,SCT023CU,0.00,125.00,VWS V14.01,2013-08-12 05:24:00,
2013-08-12 01:29:00,81.2,75.2,30.06,ENE,72,1.0,2.0,82,0.00,,SCT023CU,0.00,125.00,VWS V14.01,2013-08-12 05:29:00,
2013-08-12 01:34:00,81.1,75.1,30.06,ENE,71,0.0,0.0,82,0.00,,SCT023CU,0.00,125.00,VWS V14.01,2013-08-12 05:34:00,
2013-08-12 01:39:00,81.1,75.4,30.06,ENE,71,0.0,2.0,83,0.00,,SCT023CU,0.00,125.00,VWS V14.01,2013-08-12 05:39:00,
2013-08-12 01:44:00,81.0,75.3,30.06,ENE,71,0.0,1.0,83,0.00,,SCT023CU,0.00,125.00,VWS V14.01,2013-08-12 05:44:00,
2013-08-12 01:49:00,80.8,75.2,30.06,ENE,71,1.0,2.0,83,0.00,,SCT023CU,0.00,125.00,VWS V14.01,2013-08-12 05:49:00,
2013-08-12 01:53:00,80.7,75.4,30.06,ENE,71,0.0,3.0,84,0.00,,SCT023CU,0.00,125.00,VWS V14.01,2013-08-12 05:53:00,
2013-08-12 01:58:00,80.6,75.3,30.06,ENE,71,1.0,2.0,84,0.00,,SCT023CU,0.00,125.00,VWS V14.01,2013-08-12 05:58:00,
2013-08-12 02:03:00,80.5,75.2,30.06,ENE,71,1.0,2.0,84,0.00,,SCT023CU,0.00,125.00,VWS V14.01,2013-08-12 06:03:00,
2013-08-12 02:08:00,80.3,75.0,30.06,ENE,71,0.0,1.0,84,0.00,,SCT023CU,0.00,125.00,VWS V14.01,2013-08-12 06:08:00,
2013-08-12 02:13:00,80.2,74.9,30.06,ENE,71,0.0,1.0,84,0.00,,SCT023CU,0.00,125.00,VWS V14.01,2013-08-12 06:13:00,
2013-08-12 02:18:00,80.1,74.8,30.06,ENE,71,2.0,2.0,84,0.00,,SCT023CU,0.00,125.00,VWS V14.01,2013-08-12 06:18:00,
2013-08-12 02:23:00,80.1,75.2,30.05,ENE,71,1.0,1.0,85,0.00,,SCT023CU,0.00,125.00,VWS V14.01,2013-08-12 06:23:00,
2013-08-12 02:28:00,80.0,75.1,30.06,ENE,71,0.0,1.0,85,0.00,,SCT023CU,0.00,125.00,VWS V14.01,2013-08-12 06:28:00,
2013-08-12 02:33:00,80.0,75.1,30.05,ENE,72,0.0,1.0,85,0.00,,SCT023CU,0.00,125.00,VWS V14.01,2013-08-12 06:33:00,
2013-08-12 02:38:00,79.8,74.9,30.05,ENE,71,0.0,1.0,85,0.00,,SCT023CU,0.00,125.00,VWS V14.01,2013-08-12 06:38:00,
2013-08-12 02:43:00,79.8,75.2,30.05,ENE,72,0.0,1.0,86,0.00,,SCT023CU,0.00,125.00,VWS V14.01,2013-08-12 06:43:00,
2013-08-12 02:48:00,79.7,75.2,30.05,ENE,71,0.0,2.0,86,0.00,,SCT023CU,0.00,125.00,VWS V14.01,2013-08-12 06:48:00,
2013-08-12 02:53:00,79.6,75.1,30.05,ENE,71,0.0,2.0,86,0.00,,SCT023CU,0.00,125.00,VWS V14.01,2013-08-12 06:53:00,
2013-08-12 02:58:00,79.5,74.9,30.05,ENE,71,0.0,1.0,86,0.00,,SCT023CU,0.00,125.00,VWS V14.01,2013-08-12 06:58:00,
2013-08-12 03:03:00,79.5,74.9,30.05,ENE,71,0.0,1.0,86,0.00,,SCT023CU,0.00,125.00,VWS V14.01,2013-08-12 07:03:00,
2013-08-12 03:08:00,79.5,74.9,30.04,ENE,71,0.0,2.0,86,0.00,,SCT023CU,0.00,125.00,VWS V14.01,2013-08-12 07:08:00,
2013-08-12 03:13:00,79.4,74.8,30.04,ENE,71,0.0,1.0,86,0.00,,SCT023CU,0.00,125.00,VWS V14.01,2013-08-12 07:13:00,
2013-08-12 03:18:00,79.4,74.8,30.04,ENE,71,0.0,1.0,86,0.00,,SCT023CU,0.00,125.00,VWS V14.01,2013-08-12 07:18:00,
2013-08-12 03:23:00,79.3,74.8,30.04,ENE,71,0.0,2.0,86,0.00,,SCT023CU,0.00,125.00,VWS V14.01,2013-08-12 07:23:00,
2013-08-12 03:28:00,79.2,74.7,30.04,ENE,71,0.0,1.0,86,0.00,,SCT023CU,0.00,125.00,VWS V14.01,2013-08-12 07:28:00,
2013-08-12 03:33:00,79.1,74.9,30.04,ENE,71,1.0,1.0,87,0.00,,SCT023CU,0.00,125.00,VWS V14.01,2013-08-12 07:33:00,
2013-08-12 03:38:00,79.0,74.8,30.04,ENE,71,0.0,1.0,87,0.00,,SCT023CU,0.00,125.00,VWS V14.01,2013-08-12 07:38:00,
2013-08-12 03:43:00,78.9,74.7,30.04,ENE,71,0.0,2.0,87,0.00,,SCT023CU,0.00,125.00,VWS V14.01,2013-08-12 07:43:00,
2013-08-12 03:48:00,78.8,74.9,30.03,ENE,71,0.0,2.0,88,0.00,,SCT023CU,0.00,125.00,VWS V14.01,2013-08-12 07:48:00,
2013-08-12 03:53:00,78.7,74.8,30.04,ENE,72,0.0,1.0,88,0.00,,SCT023CU,0.00,125.00,VWS V14.01,2013-08-12 07:53:00,
2013-08-12 03:58:00,78.6,74.8,30.04,ENE,71,0.0,0.0,88,0.00,,SCT023CU,0.00,125.00,VWS V14.01,2013-08-12 07:58:00,
2013-08-12 04:03:00,78.5,74.7,30.04,ENE,71,0.0,0.0,88,0.00,,SCT023CU,0.00,125.00,VWS V14.01,2013-08-12 08:03:00,
2013-08-12 04:08:00,78.4,74.6,30.03,ENE,71,0.0,0.0,88,0.00,,SCT023CU,0.00,125.00,VWS V14.01,2013-08-12 08:08:00,
2013-08-12 04:13:00,78.4,74.6,30.04,ENE,71,0.0,0.0,88,0.00,,SCT023CU,0.00,125.00,VWS V14.01,2013-08-12 08:13:00,
2013-08-12 04:18:00,78.4,74.6,30.04,ENE,71,0.0,0.0,88,0.00,,SCT023CU,0.00,125.00,VWS V14.01,2013-08-12 08:18:00,
2013-08-12 04:23:00,78.4,74.9,30.04,ENE,71,0.0,0.0,89,0.00,,SCT023CU,0.00,125.00,VWS V14.01,2013-08-12 08:23:00,
2013-08-12 04:28:00,78.3,74.8,30.04,ENE,71,0.0,0.0,89,0.00,,SCT023CU,0.00,125.00,VWS V14.01,2013-08-12 08:28:00,
2013-08-12 04:33:00,78.3,74.8,30.04,ENE,71,0.0,0.0,89,0.00,,SCT023CU,0.00,125.00,VWS V14.01,2013-08-12 08:33:00,
2013-08-12 04:38:00,78.1,74.6,30.04,ENE,71,0.0,2.0,89,0.00,,SCT023CU,0.00,125.00,VWS V14.01,2013-08-12 08:38:00,
2013-08-12 04:43:00,78.0,74.5,30.03,ENE,71,0.0,2.0,89,0.00,,SCT023CU,0.00,125.00,VWS V14.01,2013-08-12 08:43:00,
2013-08-12 04:48:00,78.2,74.7,30.03,ENE,71,0.0,1.0,89,0.00,,SCT023CU,0.00,125.00,VWS V14.01,2013-08-12 08:48:00,
2013-08-12 04:53:00,78.1,74.6,30.03,ENE,71,0.0,1.0,89,0.00,,SCT023CU,0.00,125.00,VWS V14.01,2013-08-12 08:53:00,
2013-08-12 04:58:00,77.9,74.4,30.03,ENE,71,0.0,1.0,89,0.00,,SCT023CU,0.00,125.00,VWS V14.01,2013-08-12 08:58:00,
2013-08-12 05:03:00,77.8,74.3,30.03,ENE,71,0.0,0.0,89,0.00,,SCT023CU,0.00,125.00,VWS V14.01,2013-08-12 09:03:00,
2013-08-12 05:08:00,77.8,74.3,30.03,ENE,72,0.0,1.0,89,0.00,,SCT023CU,0.00,125.00,VWS V14.01,2013-08-12 09:08:00,
2013-08-12 05:13:00,77.7,74.2,30.02,ENE,71,0.0,0.0,89,0.00,,SCT023CU,0.00,125.00,VWS V14.01,2013-08-12 09:13:00,
2013-08-12 05:18:00,77.7,74.2,30.02,ENE,71,0.0,1.0,89,0.00,,SCT023CU,0.00,125.00,VWS V14.01,2013-08-12 09:18:00,
2013-08-12 05:23:00,77.7,74.2,30.02,ENE,71,0.0,1.0,89,0.00,,SCT023CU,0.00,125.00,VWS V14.01,2013-08-12 09:23:00,
2013-08-12 05:28:00,77.7,74.2,30.02,ENE,72,0.0,2.0,89,0.00,,SCT023CU,0.00,125.00,VWS V14.01,2013-08-12 09:28:00,
2013-08-12 05:33:00,77.6,74.1,30.03,ENE,71,1.0,2.0,89,0.00,,SCT023CU,0.00,125.00,VWS V14.01,2013-08-12 09:33:00,
2013-08-12 05:38:00,77.6,74.1,30.03,ENE,71,0.0,1.0,89,0.00,,SCT023CU,0.00,125.00,VWS V14.01,2013-08-12 09:38:00,
2013-08-12 05:43:00,77.7,74.2,30.03,ENE,71,0.0,1.0,89,0.00,,SCT023CU,0.00,125.00,VWS V14.01,2013-08-12 09:43:00,
2013-08-12 05:48:00,77.7,74.2,30.03,ENE,71,0.0,0.0,89,0.00,,SCT023CU,0.00,125.00,VWS V14.01,2013-08-12 09:48:00,
2013-08-12 05:53:00,77.7,74.2,30.03,ENE,71,0.0,0.0,89,0.00,,SCT023CU,0.00,125.00,VWS V14.01,2013-08-12 09:53:00,
2013-08-12 05:58:00,77.6,74.1,30.03,ENE,71,0.0,0.0,89,0.00,,SCT023CU,0.00,125.00,VWS V14.01,2013-08-12 09:58:00,
2013-08-12 06:03:00,77.6,74.1,30.03,ENE,71,0.0,0.0,89,0.00,,SCT023CU,0.00,125.00,VWS V14.01,2013-08-12 10:03:00,
2013-08-12 06:08:00,77.6,74.1,30.03,ENE,71,0.0,1.0,89,0.00,,SCT023CU,0.00,125.00,VWS V14.01,2013-08-12 10:08:00,
2013-08-12 06:13:00,77.6,74.1,30.03,ENE,71,0.0,1.0,89,0.00,,SCT023CU,0.00,125.00,VWS V14.01,2013-08-12 10:13:00,
2013-08-12 06:18:00,77.5,74.0,30.03,ENE,71,0.0,1.0,89,0.00,,SCT023CU,0.00,125.00,VWS V14.01,2013-08-12 10:18:00,
2013-08-12 06:23:00,77.5,74.0,30.04,ENE,71,0.0,1.0,89,0.00,,SCT023CU,0.00,125.00,VWS V14.01,2013-08-12 10:23:00,
2013-08-12 06:28:00,77.6,74.1,30.03,ENE,71,1.0,1.0,89,0.00,,SCT023CU,0.00,125.00,VWS V14.01,2013-08-12 10:28:00,
2013-08-12 06:33:00,77.6,74.1,30.03,ENE,72,1.0,2.0,89,0.00,,SCT023CU,0.00,125.00,VWS V14.01,2013-08-12 10:33:00,
2013-08-12 06:38:00,77.8,74.3,30.03,ENE,71,0.0,2.0,89,0.00,,SCT023CU,0.00,125.00,VWS V14.01,2013-08-12 10:38:00,
2013-08-12 06:43:00,77.9,74.4,30.03,ENE,71,2.0,3.0,89,0.00,,SCT023CU,0.00,127.00,VWS V14.01,2013-08-12 10:43:00,
2013-08-12 06:48:00,78.0,74.5,30.04,ENE,71,0.0,1.0,89,0.00,,SCT023CU,0.00,128.00,VWS V14.01,2013-08-12 10:48:00,
2013-08-12 06:53:00,77.9,74.4,30.03,ENE,72,0.0,0.0,89,0.00,,SCT023CU,0.00,130.00,VWS V14.01,2013-08-12 10:53:00,
2013-08-12 06:58:00,77.8,74.3,30.03,ENE,71,0.0,2.0,89,0.00,,SCT023CU,0.00,134.00,VWS V14.01,2013-08-12 10:58:00,
2013-08-12 07:03:00,77.8,74.3,30.04,ENE,71,0.0,1.0,89,0.00,,SCT025,0.00,137.00,VWS V14.01,2013-08-12 11:03:00,
2013-08-12 07:08:00,77.9,74.4,30.04,ENE,71,0.0,1.0,89,0.00,,SCT025,0.00,141.00,VWS V14.01,2013-08-12 11:08:00,
2013-08-12 07:13:00,77.9,74.4,30.04,ENE,71,0.0,1.0,89,0.00,,SCT025,0.00,146.00,VWS V14.01,2013-08-12 11:13:00,
2013-08-12 07:18:00,77.9,74.4,30.04,ENE,71,0.0,1.0,89,0.00,,SCT025,0.00,153.00,VWS V14.01,2013-08-12 11:18:00,
2013-08-12 07:23:00,77.9,74.4,30.04,ENE,71,0.0,0.0,89,0.00,,SCT025,0.00,160.00,VWS V14.01,2013-08-12 11:23:00,
2013-08-12 07:28:00,78.0,74.5,30.04,ENE,72,0.0,0.0,89,0.00,,SCT025,0.00,172.00,VWS V14.01,2013-08-12 11:28:00,
2013-08-12 07:33:00,78.1,74.6,30.04,ENE,71,0.0,0.0,89,0.00,,SCT025,0.00,183.00,VWS V14.01,2013-08-12 11:33:00,
2013-08-12 07:38:00,78.3,74.8,30.04,ENE,71,0.0,0.0,89,0.00,,SCT025,0.00,197.00,VWS V14.01,2013-08-12 11:38:00,
2013-08-12 07:43:00,78.5,75.0,30.04,ENE,71,0.0,0.0,89,0.00,,SCT025,0.00,213.00,VWS V14.01,2013-08-12 11:43:00,
2013-08-12 07:48:00,78.7,75.2,30.04,ENE,72,1.0,2.0,89,0.00,,SCT025,0.00,229.00,VWS V14.01,2013-08-12 11:48:00,
2013-08-12 07:53:00,79.0,75.5,30.04,ENE,71,1.0,1.0,89,0.00,,SCT025,0.00,241.00,VWS V14.01,2013-08-12 11:53:00,
2013-08-12 07:58:00,79.3,75.8,30.04,ENE,72,2.0,2.0,89,0.00,,CLR,0.00,258.00,VWS V14.01,2013-08-12 11:58:00,
2013-08-12 08:03:00,79.6,75.7,30.05,ENE,72,3.0,3.0,88,0.00,,CLR,0.00,276.00,VWS V14.01,2013-08-12 12:03:00,
2013-08-12 08:08:00,79.9,76.0,30.05,ENE,71,0.0,2.0,88,0.00,,CLR,0.00,281.00,VWS V14.01,2013-08-12 12:08:00,
2013-08-12 08:13:00,80.3,76.1,30.05,ENE,71,0.0,2.0,87,0.00,,CLR,0.00,285.00,VWS V14.01,2013-08-12 12:13:00,
2013-08-12 08:18:00,80.7,76.5,30.05,ENE,71,2.0,2.0,87,0.00,,CLR,0.00,302.00,VWS V14.01,2013-08-12 12:18:00,
2013-08-12 08:23:00,81.0,76.4,30.05,ENE,71,2.0,4.0,86,0.00,,CLR,0.00,334.00,VWS V14.01,2013-08-12 12:23:00,
2013-08-12 08:28:00,81.6,77.0,30.05,ENE,71,2.0,3.0,86,0.00,,CLR,0.00,353.00,VWS V14.01,2013-08-12 12:28:00,
2013-08-12 08:33:00,82.0,76.7,30.05,ENE,57,4.0,5.0,84,0.00,,CLR,0.00,371.00,VWS V14.01,2013-08-12 12:33:00,
2013-08-12 08:38:00,82.4,76.4,30.05,NNE,28,1.0,5.0,82,0.00,,CLR,0.00,387.00,VWS V14.01,2013-08-12 12:38:00,
2013-08-12 08:43:00,82.7,76.3,30.05,ENE,67,3.0,4.0,81,0.00,,CLR,0.00,401.00,VWS V14.01,2013-08-12 12:43:00,
2013-08-12 08:48:00,83.4,76.6,30.05,NNE,33,4.0,5.0,80,0.00,,CLR,0.00,420.00,VWS V14.01,2013-08-12 12:48:00,
2013-08-12 08:53:00,83.7,75.3,30.05,ENE,78,4.0,9.0,76,0.00,,CLR,0.00,438.00,VWS V14.01,2013-08-12 12:53:00,
2013-08-12 08:58:00,84.0,75.2,30.05,ENE,57,3.0,10.0,75,0.00,,CLR,0.00,450.00,VWS V14.01,2013-08-12 12:58:00,
2013-08-12 09:03:00,84.2,75.4,30.05,NE,46,5.0,9.0,75,0.00,,FEW023,0.00,473.00,VWS V14.01,2013-08-12 13:03:00,
2013-08-12 09:08:00,84.4,75.6,30.05,ENE,77,1.0,6.0,75,0.00,,FEW023,0.00,490.00,VWS V14.01,2013-08-12 13:08:00,
2013-08-12 09:13:00,84.8,75.2,30.05,ENE,71,7.0,10.0,73,0.00,,FEW023,0.00,510.00,VWS V14.01,2013-08-12 13:13:00,
2013-08-12 09:18:00,85.0,75.0,30.05,NNE,17,3.0,10.0,72,0.00,,FEW023,0.00,522.00,VWS V14.01,2013-08-12 13:18:00,
2013-08-12 09:23:00,85.3,75.7,30.05,ENE,69,0.0,5.0,73,0.00,,FEW023,0.00,541.00,VWS V14.01,2013-08-12 13:23:00,
2013-08-12 09:28:00,85.4,75.3,30.05,NE,51,8.0,10.0,72,0.00,,FEW023,0.00,555.00,VWS V14.01,2013-08-12 13:28:00,
2013-08-12 09:33:00,85.3,74.4,30.05,ENE,61,3.0,12.0,70,0.00,,FEW023,0.00,571.00,VWS V14.01,2013-08-12 13:33:00,
2013-08-12 09:38:00,85.2,73.9,30.05,ENE,62,7.0,8.0,69,0.00,,FEW023,0.00,587.00,VWS V14.01,2013-08-12 13:38:00,
2013-08-12 09:43:00,85.5,74.2,30.05,ENE,57,6.0,7.0,69,0.00,,FEW023,0.00,605.00,VWS V14.01,2013-08-12 13:43:00,
2013-08-12 09:48:00,85.6,74.7,30.05,East,89,9.0,12.0,70,0.00,,FEW023,0.00,617.00,VWS V14.01,2013-08-12 13:48:00,
2013-08-12 09:53:00,85.6,74.3,30.05,ENE,57,4.0,7.0,69,0.00,,FEW023,0.00,631.00,VWS V14.01,2013-08-12 13:53:00,
2013-08-12 09:58:00,85.9,75.0,30.05,ENE,69,5.0,9.0,70,0.00,,FEW025,0.00,638.00,VWS V14.01,2013-08-12 13:58:00,
2013-08-12 10:03:00,86.1,75.2,30.05,NE,37,5.0,10.0,70,0.00,,FEW025,0.00,670.00,VWS V14.01,2013-08-12 14:03:00,
2013-08-12 10:08:00,86.1,75.2,30.05,NNE,27,2.0,10.0,70,0.00,,FEW025,0.00,679.00,VWS V14.01,2013-08-12 14:08:00,
2013-08-12 10:13:00,86.1,74.8,30.05,NE,41,6.0,9.0,69,0.00,,FEW025,0.00,686.00,VWS V14.01,2013-08-12 14:13:00,
2013-08-12 10:18:00,86.2,74.8,30.05,NE,45,2.0,7.0,69,0.00,,FEW025,0.00,705.00,VWS V14.01,2013-08-12 14:18:00,
2013-08-12 10:23:00,86.3,74.5,30.05,NNE,13,3.0,9.0,68,0.00,,FEW025,0.00,686.00,VWS V14.01,2013-08-12 14:23:00,
2013-08-12 10:28:00,86.3,74.5,30.05,NE,51,6.0,9.0,68,0.00,,FEW025,0.00,633.00,VWS V14.01,2013-08-12 14:28:00,
2013-08-12 10:33:00,86.7,74.9,30.05,NE,55,3.0,7.0,68,0.00,,FEW025,0.00,758.00,VWS V14.01,2013-08-12 14:33:00,
2013-08-12 10:38:00,87.0,74.3,30.05,ESE,112,8.0,8.0,66,0.00,,FEW025,0.00,759.00,VWS V14.01,2013-08-12 14:38:00,
2013-08-12 10:43:00,87.3,74.6,30.05,ESE,117,5.0,7.0,66,0.00,,FEW025,0.00,770.00,VWS V14.01,2013-08-12 14:43:00,
2013-08-12 10:48:00,87.4,74.2,30.05,ENE,60,5.0,9.0,65,0.00,,FEW025,0.00,779.00,VWS V14.01,2013-08-12 14:48:00,
2013-08-12 10:53:00,87.4,74.2,30.05,ESE,111,4.0,7.0,65,0.00,,FEW025,0.00,793.00,VWS V14.01,2013-08-12 14:53:00,
2013-08-12 10:58:00,87.8,75.0,30.05,NE,55,5.0,10.0,66,0.00,,FEW030,0.00,816.00,VWS V14.01,2013-08-12 14:58:00,
2013-08-12 11:03:00,87.8,74.6,30.05,NNE,13,5.0,9.0,65,0.00,,FEW030,0.00,816.00,VWS V14.01,2013-08-12 15:03:00,
2013-08-12 11:08:00,87.6,74.4,30.05,NNE,28,6.0,9.0,65,0.00,,FEW030,0.00,819.00,VWS V14.01,2013-08-12 15:08:00,
2013-08-12 11:13:00,87.8,74.1,30.05,ENE,71,2.0,6.0,64,0.00,,FEW030,0.00,837.00,VWS V14.01,2013-08-12 15:13:00,
2013-08-12 11:18:00,88.1,74.4,30.05,East,96,5.0,5.0,64,0.00,,FEW030,0.00,842.00,VWS V14.01,2013-08-12 15:18:00,
2013-08-12 11:23:00,88.3,73.2,30.06,NNE,24,5.0,11.0,61,0.00,,FEW030,0.00,853.00,VWS V14.01,2013-08-12 15:23:00,
2013-08-12 11:28:00,88.3,74.6,30.06,NNE,16,5.0,7.0,64,0.00,,FEW030,0.00,881.00,VWS V14.01,2013-08-12 15:28:00,
2013-08-12 11:33:00,88.1,73.9,30.05,ENE,57,7.0,9.0,63,0.00,,FEW030,0.00,904.00,VWS V14.01,2013-08-12 15:33:00,
2013-08-12 11:38:00,88.4,74.7,30.05,NE,55,3.0,6.0,64,0.00,,FEW030,0.00,919.00,VWS V14.01,2013-08-12 15:38:00,
2013-08-12 11:43:00,88.6,74.4,30.05,ENE,78,3.0,9.0,63,0.00,,FEW030,0.00,921.00,VWS V14.01,2013-08-12 15:43:00,
2013-08-12 11:48:00,88.7,74.0,30.05,North,11,9.0,10.0,62,0.00,,FEW030,0.00,928.00,VWS V14.01,2013-08-12 15:48:00,
2013-08-12 11:53:00,88.5,74.8,30.05,ENE,67,7.0,12.0,64,0.00,,FEW030,0.00,1018.00,VWS V14.01,2013-08-12 15:53:00,
2013-08-12 11:58:00,88.3,75.1,30.05,NE,54,3.0,7.0,65,0.00,,FEW030,0.00,962.00,VWS V14.01,2013-08-12 15:58:00,
2013-08-12 12:03:00,88.1,74.9,30.05,East,86,0.0,6.0,65,0.00,,FEW030,0.00,357.00,VWS V14.01,2013-08-12 16:03:00,
2013-08-12 12:08:00,88.2,75.4,30.05,ENE,58,1.0,10.0,66,0.00,,FEW030,0.00,320.00,VWS V14.01,2013-08-12 16:08:00,
2013-08-12 12:13:00,88.3,75.5,30.05,NNE,16,7.0,9.0,66,0.00,,FEW030,0.00,338.00,VWS V14.01,2013-08-12 16:13:00,
2013-08-12 12:18:00,88.3,75.1,30.04,NNE,22,10.0,11.0,65,0.00,,FEW030,0.00,1037.00,VWS V14.01,2013-08-12 16:18:00,
2013-08-12 12:23:00,88.3,75.1,30.04,ENE,76,2.0,7.0,65,0.00,,FEW030,0.00,1048.00,VWS V14.01,2013-08-12 16:23:00,
2013-08-12 12:28:00,88.3,76.0,30.04,North,360,8.0,11.0,67,0.00,,FEW030,0.00,1044.00,VWS V14.01,2013-08-12 16:28:00,
2013-08-12 12:33:00,88.1,75.8,30.04,ENE,71,1.0,8.0,67,0.00,,FEW030,0.00,1044.00,VWS V14.01,2013-08-12 16:33:00,
2013-08-12 12:38:00,88.5,76.6,30.04,NNE,28,3.0,6.0,68,0.00,,FEW030,0.00,1041.00,VWS V14.01,2013-08-12 16:38:00,
2013-08-12 12:43:00,88.5,76.2,30.04,ENE,71,2.0,7.0,67,0.00,,FEW030,0.00,1114.00,VWS V14.01,2013-08-12 16:43:00,
2013-08-12 12:48:00,88.5,75.7,30.04,NE,35,6.0,13.0,66,0.00,,SCT030,0.00,1114.00,VWS V14.01,2013-08-12 16:48:00,
2013-08-12 12:53:00,88.7,76.8,30.04,ENE,65,8.0,10.0,68,0.00,,SCT030,0.00,1178.00,VWS V14.01,2013-08-12 16:53:00,
2013-08-12 12:58:00,88.4,76.1,30.04,NNE,32,3.0,12.0,67,0.00,,SCT030,0.00,1206.00,VWS V14.01,2013-08-12 16:58:00,
2013-08-12 13:03:00,88.1,76.2,30.04,ENE,70,6.0,12.0,68,0.00,,BKN031,0.00,1130.00,VWS V14.01,2013-08-12 17:03:00,
2013-08-12 13:08:00,88.4,76.9,30.03,NE,51,3.0,7.0,69,0.00,,BKN031,0.00,441.00,VWS V14.01,2013-08-12 17:08:00,
2013-08-12 13:13:00,88.5,76.6,30.03,NE,56,9.0,10.0,68,0.00,,BKN031,0.00,418.00,VWS V14.01,2013-08-12 17:13:00,
2013-08-12 13:18:00,88.4,77.4,30.03,NNE,33,3.0,10.0,70,0.00,,BKN031,0.00,1141.00,VWS V14.01,2013-08-12 17:18:00,
2013-08-12 13:23:00,88.2,76.8,30.03,NNE,24,6.0,14.0,69,0.00,,BKN031,0.00,366.00,VWS V14.01,2013-08-12 17:23:00,
2013-08-12 13:28:00,88.2,77.2,30.03,NNE,33,3.0,7.0,70,0.00,,BKN031,0.00,373.00,VWS V14.01,2013-08-12 17:28:00,
2013-08-12 13:33:00,88.0,76.6,30.03,NNE,13,6.0,12.0,69,0.00,,BKN031,0.00,320.00,VWS V14.01,2013-08-12 17:33:00,
2013-08-12 13:38:00,87.9,76.0,30.03,NNE,21,6.0,8.0,68,0.00,,BKN031,0.00,1072.00,VWS V14.01,2013-08-12 17:38:00,
2013-08-12 13:43:00,88.5,76.6,30.03,NE,48,5.0,6.0,68,0.00,,BKN031,0.00,1062.00,VWS V14.01,2013-08-12 17:43:00,
2013-08-12 13:48:00,89.2,75.4,30.03,NE,48,1.0,10.0,64,0.00,,BKN031,0.00,1083.00,VWS V14.01,2013-08-12 17:48:00,
2013-08-12 13:53:00,89.0,75.7,30.03,East,80,2.0,9.0,65,0.00,,BKN031,0.00,469.00,VWS V14.01,2013-08-12 17:53:00,
2013-08-12 13:58:00,88.6,74.9,30.03,NNE,24,3.0,11.0,64,0.00,,BKN031,0.00,1125.00,VWS V14.01,2013-08-12 17:58:00,
2013-08-12 14:03:00,88.3,74.6,30.02,NE,35,5.0,9.0,64,0.00,,BKN031,0.00,378.00,VWS V14.01,2013-08-12 18:03:00,
2013-08-12 14:08:00,88.7,74.5,30.02,NE,52,5.0,9.0,63,0.00,,BKN025,0.00,1072.00,VWS V14.01,2013-08-12 18:08:00,
2013-08-12 14:13:00,89.4,74.2,30.02,NNE,18,7.0,10.0,61,0.00,,BKN025,0.00,1106.00,VWS V14.01,2013-08-12 18:13:00,
2013-08-12 14:18:00,89.2,75.0,30.02,NNE,17,6.0,9.0,63,0.00,,BKN025,0.00,1114.00,VWS V14.01,2013-08-12 18:18:00,
2013-08-12 14:23:00,89.4,74.7,30.02,NE,56,8.0,10.0,62,0.00,,BKN025,0.00,1216.00,VWS V14.01,2013-08-12 18:23:00,
2013-08-12 14:28:00,88.7,76.8,30.02,ESE,118,9.0,16.0,68,0.00,,BKN025,0.00,434.00,VWS V14.01,2013-08-12 18:28:00,
2013-08-12 14:34:00,87.2,74.5,30.02,East,98,13.0,15.0,66,0.00,,BKN025,0.00,461.00,VWS V14.01,2013-08-12 18:34:00,
2013-08-12 14:39:00,86.3,74.5,30.02,SE,142,12.0,17.0,68,0.00,,BKN025,0.00,515.00,VWS V14.01,2013-08-12 18:39:00,
2013-08-12 14:44:00,86.5,75.6,30.02,SSE,151,11.0,11.0,70,0.00,,BKN025,0.00,538.00,VWS V14.01,2013-08-12 18:44:00,
2013-08-12 14:49:00,86.8,76.3,30.01,SE,127,3.0,11.0,71,0.00,,BKN025,0.00,599.00,VWS V14.01,2013-08-12 18:49:00,
2013-08-12 14:54:00,86.9,76.4,30.01,SE,131,4.0,12.0,71,0.00,,BKN025,0.00,466.00,VWS V14.01,2013-08-12 18:54:00,
2013-08-12 14:59:00,87.0,76.5,30.01,ENE,67,3.0,7.0,71,0.00,,BKN025,0.00,425.00,VWS V14.01,2013-08-12 18:59:00,
2013-08-12 15:04:00,87.4,77.3,30.01,East,83,2.0,6.0,72,0.00,,BKN025,0.00,380.00,VWS V14.01,2013-08-12 19:04:00,
2013-08-12 15:09:00,87.1,75.3,30.01,ENE,66,7.0,10.0,68,0.00,,BKN025,0.00,408.00,VWS V14.01,2013-08-12 19:09:00,
2013-08-12 15:14:00,86.8,75.0,30.01,East,98,1.0,10.0,68,0.00,,BKN025,0.00,403.00,VWS V14.01,2013-08-12 19:14:00,
2013-08-12 15:19:00,86.6,74.8,30.01,NE,46,3.0,10.0,68,0.00,,SCT110,0.00,404.00,VWS V14.01,2013-08-12 19:19:00,
2013-08-12 15:24:00,86.6,75.2,30.01,ENE,59,5.0,10.0,69,0.00,,SCT110,0.00,415.00,VWS V14.01,2013-08-12 19:24:00,
2013-08-12 15:29:00,86.5,75.6,30.01,NNE,19,3.0,7.0,70,0.00,,SCT110,0.00,418.00,VWS V14.01,2013-08-12 19:29:00,
2013-08-12 15:34:00,86.4,75.5,30.00,NE,48,4.0,9.0,70,0.00,,SCT110,0.00,418.00,VWS V14.01,2013-08-12 19:34:00,
2013-08-12 15:39:00,86.3,74.9,30.00,East,86,3.0,7.0,69,0.00,,SCT110,0.00,410.00,VWS V14.01,2013-08-12 19:39:00,
2013-08-12 15:44:00,86.4,75.0,30.00,NE,35,4.0,5.0,69,0.00,,SCT110,0.00,399.00,VWS V14.01,2013-08-12 19:44:00,
2013-08-12 15:49:00,86.4,75.0,30.00,East,92,1.0,6.0,69,0.00,,SCT110,0.00,385.00,VWS V14.01,2013-08-12 19:49:00,
2013-08-12 15:54:00,86.4,74.2,30.00,East,84,1.0,10.0,67,0.00,,SCT110,0.00,378.00,VWS V14.01,2013-08-12 19:54:00,
2013-08-12 15:59:00,86.4,73.7,30.00,ENE,69,3.0,9.0,66,0.00,,SCT110,0.00,408.00,VWS V14.01,2013-08-12 19:59:00,
2013-08-12 16:04:00,86.3,74.1,30.00,ENE,69,3.0,7.0,67,0.00,,SCT110,0.00,517.00,VWS V14.01,2013-08-12 20:04:00,
2013-08-12 16:09:00,86.5,75.1,30.00,East,99,4.0,9.0,69,0.00,,SCT110,0.00,645.00,VWS V14.01,2013-08-12 20:09:00,
2013-08-12 16:14:00,86.4,74.6,30.00,NE,55,6.0,10.0,68,0.00,,SCT080,0.00,870.00,VWS V14.01,2013-08-12 20:14:00,
2013-08-12 16:19:00,86.6,74.8,30.00,NNE,13,4.0,7.0,68,0.00,,SCT080,0.00,828.00,VWS V14.01,2013-08-12 20:19:00,
2013-08-12 16:24:00,86.9,74.2,30.00,ENE,57,3.0,11.0,66,0.00,,SCT080,0.00,749.00,VWS V14.01,2013-08-12 20:24:00,
2013-08-12 16:29:00,87.8,74.1,30.00,ESE,105,6.0,10.0,64,0.00,,SCT080,0.00,703.00,VWS V14.01,2013-08-12 20:29:00,
2013-08-12 16:34:00,88.1,73.4,30.00,NE,55,8.0,10.0,62,0.00,,SCT080,0.00,761.00,VWS V14.01,2013-08-12 20:34:00,
2013-08-12 16:39:00,88.1,73.9,30.00,NNE,33,4.0,10.0,63,0.00,,SCT080,0.00,752.00,VWS V14.01,2013-08-12 20:39:00,
2013-08-12 16:44:00,88.4,74.2,30.00,ESE,115,7.0,11.0,63,0.00,,SCT080,0.00,740.00,VWS V14.01,2013-08-12 20:44:00,
2013-08-12 16:49:00,88.6,72.9,30.00,East,84,4.0,12.0,60,0.00,,SCT080,0.00,649.00,VWS V14.01,2013-08-12 20:49:00,
2013-08-12 16:54:00,88.6,73.4,30.00,ENE,75,6.0,10.0,61,0.00,,SCT080,0.00,617.00,VWS V14.01,2013-08-12 20:54:00,
2013-08-12 16:59:00,88.3,73.6,29.99,ENE,57,3.0,10.0,62,0.00,,SCT080,0.00,698.00,VWS V14.01,2013-08-12 20:59:00,
2013-08-12 17:04:00,88.6,74.4,30.00,East,81,8.0,9.0,63,0.00,,BKN150,0.00,694.00,VWS V14.01,2013-08-12 21:04:00,
2013-08-12 17:09:00,88.5,75.7,29.99,East,82,6.0,11.0,66,0.00,,BKN150,0.00,598.00,VWS V14.01,2013-08-12 21:09:00,
2013-08-12 17:14:00,87.9,75.6,29.99,North,5,5.0,10.0,67,0.00,,BKN150,0.00,390.00,VWS V14.01,2013-08-12 21:14:00,
2013-08-12 17:19:00,87.5,76.1,29.99,North,5,4.0,9.0,69,0.00,,BKN150,0.00,694.00,VWS V14.01,2013-08-12 21:19:00,
2013-08-12 17:24:00,87.4,76.4,29.99,NE,47,9.0,12.0,70,0.00,,BKN150,0.00,559.00,VWS V14.01,2013-08-12 21:24:00,
2013-08-12 17:29:00,87.2,76.7,29.99,NNE,18,3.0,10.0,71,0.00,,BKN150,0.00,503.00,VWS V14.01,2013-08-12 21:29:00,
2013-08-12 17:34:00,87.2,76.7,29.99,NE,42,6.0,10.0,71,0.00,,BKN150,0.00,469.00,VWS V14.01,2013-08-12 21:34:00,
2013-08-12 17:39:00,86.9,75.9,29.99,East,83,6.0,9.0,70,0.00,,BKN150,0.00,561.00,VWS V14.01,2013-08-12 21:39:00,
2013-08-12 17:44:00,86.9,76.4,29.99,NNE,29,0.0,9.0,71,0.00,,BKN150,0.00,434.00,VWS V14.01,2013-08-12 21:44:00,
2013-08-12 17:49:00,86.9,76.4,29.99,ENE,59,3.0,9.0,71,0.00,,BKN150,0.00,264.00,VWS V14.01,2013-08-12 21:49:00,
2013-08-12 17:54:00,86.7,75.8,29.99,ENE,65,2.0,7.0,70,0.00,,BKN150,0.00,411.00,VWS V14.01,2013-08-12 21:54:00,
2013-08-12 17:59:00,86.8,76.3,29.99,ENE,59,10.0,10.0,71,0.00,,BKN150,0.00,536.00,VWS V14.01,2013-08-12 21:59:00,
2013-08-12 18:04:00,86.7,76.2,29.99,ENE,59,6.0,9.0,71,0.00,,BKN150,0.00,311.00,VWS V14.01,2013-08-12 22:04:00,
2013-08-12 18:09:00,86.3,75.8,29.99,NNE,16,6.0,9.0,71,0.00,,BKN150,0.00,294.00,VWS V14.01,2013-08-12 22:09:00,
2013-08-12 18:14:00,86.3,76.6,30.00,NE,53,3.0,11.0,73,0.00,,BKN150,0.00,262.00,VWS V14.01,2013-08-12 22:14:00,
2013-08-12 18:19:00,86.0,75.9,29.99,NE,50,5.0,7.0,72,0.00,,BKN150,0.00,246.00,VWS V14.01,2013-08-12 22:19:00,
2013-08-12 18:24:00,85.7,75.2,29.99,NE,44,3.0,10.0,71,0.00,,BKN150,0.00,220.00,VWS V14.01,2013-08-12 22:24:00,
2013-08-12 18:29:00,85.5,75.0,29.99,East,92,3.0,10.0,71,0.00,,BKN150,0.00,204.00,VWS V14.01,2013-08-12 22:29:00,
2013-08-12 18:34:00,85.4,74.5,29.99,ENE,65,4.0,10.0,70,0.00,,BKN150,0.00,199.00,VWS V14.01,2013-08-12 22:34:00,
2013-08-12 18:39:00,85.3,74.8,29.99,ENE,59,9.0,10.0,71,0.00,,BKN150,0.00,195.00,VWS V14.01,2013-08-12 22:39:00,
2013-08-12 18:44:00,85.2,75.6,29.99,NE,47,5.0,6.0,73,0.00,,BKN150,0.00,176.00,VWS V14.01,2013-08-12 22:44:00,
2013-08-12 18:49:00,84.9,74.9,29.99,ENE,76,2.0,10.0,72,0.00,,BKN150,0.00,176.00,VWS V14.01,2013-08-12 22:49:00,
2013-08-12 18:54:00,84.7,75.1,29.99,NE,53,9.0,9.0,73,0.00,,BKN150,0.00,178.00,VWS V14.01,2013-08-12 22:54:00,
2013-08-12 18:59:00,84.5,74.5,29.99,ENE,64,6.0,12.0,72,0.00,,BKN150,0.00,176.00,VWS V14.01,2013-08-12 22:59:00,
2013-08-12 19:04:00,84.3,74.7,29.99,ENE,70,5.0,10.0,73,0.00,,BKN150,0.00,178.00,VWS V14.01,2013-08-12 23:04:00,
2013-08-12 19:09:00,84.3,74.7,29.99,NE,55,2.0,5.0,73,0.00,,BKN150,0.00,190.00,VWS V14.01,2013-08-12 23:09:00,
2013-08-12 19:14:00,84.3,74.7,29.99,NE,55,2.0,3.0,73,0.00,,BKN150,0.00,188.00,VWS V14.01,2013-08-12 23:14:00,
2013-08-12 19:19:00,84.3,74.7,29.99,NE,43,6.0,10.0,73,0.00,,BKN150,0.00,185.00,VWS V14.01,2013-08-12 23:19:00,
2013-08-12 19:24:00,84.3,74.7,29.99,ENE,67,1.0,6.0,73,0.00,,BKN150,0.00,162.00,VWS V14.01,2013-08-12 23:24:00,
2013-08-12 19:29:00,84.3,75.1,30.00,ENE,68,2.0,7.0,74,0.00,,BKN150,0.00,155.00,VWS V14.01,2013-08-12 23:29:00,
2013-08-12 19:34:00,84.2,75.0,29.99,East,80,3.0,8.0,74,0.00,,BKN150,0.00,153.00,VWS V14.01,2013-08-12 23:34:00,
2013-08-12 19:39:00,84.2,75.4,29.99,East,85,1.0,5.0,75,0.00,,BKN150,0.00,139.00,VWS V14.01,2013-08-12 23:39:00,
2013-08-12 19:44:00,84.1,75.3,29.99,ENE,58,0.0,7.0,75,0.00,,BKN150,0.00,134.00,VWS V14.01,2013-08-12 23:44:00,
2013-08-12 19:49:00,84.0,75.6,29.99,NE,56,3.0,6.0,76,0.00,,BKN150,0.00,132.00,VWS V14.01,2013-08-12 23:49:00,
2013-08-12 19:54:00,83.8,75.4,29.99,ENE,77,2.0,7.0,76,0.00,,BKN150,0.00,130.00,VWS V14.01,2013-08-12 23:54:00,
2013-08-12 19:59:00,83.7,75.3,29.99,ENE,77,3.0,6.0,76,0.00,,SCT150,0.00,128.00,VWS V14.01,2013-08-12 23:59:00,
2013-08-12 20:04:00,83.6,75.6,29.99,NE,40,1.0,5.0,77,0.00,,SCT150,0.00,127.00,VWS V14.01,2013-08-13 00:04:00,
2013-08-12 20:09:00,83.6,75.6,29.99,ENE,75,4.0,4.0,77,0.00,,SCT150,0.00,127.00,VWS V14.01,2013-08-13 00:09:00,
2013-08-12 20:14:00,83.4,75.4,29.99,East,82,3.0,9.0,77,0.00,,SCT150,0.00,125.00,VWS V14.01,2013-08-13 00:14:00,
2013-08-12 20:19:00,83.3,75.7,29.99,ENE,67,1.0,5.0,78,0.00,,SCT150,0.00,125.00,VWS V14.01,2013-08-13 00:19:00,
2013-08-12 20:24:00,83.3,75.7,29.99,NE,43,4.0,7.0,78,0.00,,SCT150,0.00,125.00,VWS V14.01,2013-08-13 00:24:00,
2013-08-12 20:29:00,83.2,76.0,29.99,East,92,2.0,3.0,79,0.00,,SCT150,0.00,125.00,VWS V14.01,2013-08-13 00:29:00,
2013-08-12 20:34:00,83.2,76.0,29.99,ESE,102,5.0,5.0,79,0.00,,SCT150,0.00,125.00,VWS V14.01,2013-08-13 00:34:00,
2013-08-12 20:39:00,83.0,75.8,29.99,ENE,60,0.0,6.0,79,0.00,,SCT150,0.00,125.00,VWS V14.01,2013-08-13 00:39:00,
2013-08-12 20:44:00,83.0,76.2,29.99,ENE,65,3.0,4.0,80,0.00,,SCT150,0.00,125.00,VWS V14.01,2013-08-13 00:44:00,
2013-08-12 20:49:00,82.9,76.1,29.99,ENE,65,0.0,5.0,80,0.00,,SCT150,0.00,125.00,VWS V14.01,2013-08-13 00:49:00,
2013-08-12 20:54:00,82.9,76.1,29.99,East,87,4.0,7.0,80,0.00,,SCT150,0.00,125.00,VWS V14.01,2013-08-13 00:54:00,
2013-08-12 20:59:00,82.8,76.0,29.99,ENE,69,2.0,5.0,80,0.00,,SCT150,0.00,125.00,VWS V14.01,2013-08-13 00:59:00,
2013-08-12 21:04:00,82.8,76.0,30.00,ENE,69,1.0,3.0,80,0.00,,SCT150,0.00,125.00,VWS V14.01,2013-08-13 01:04:00,
2013-08-12 21:09:00,82.8,76.0,30.00,ENE,69,2.0,2.0,80,0.00,,SCT150,0.00,125.00,VWS V14.01,2013-08-13 01:09:00,
2013-08-12 21:14:00,82.8,76.4,30.00,ENE,69,0.0,4.0,81,0.00,,SCT150,0.00,125.00,VWS V14.01,2013-08-13 01:14:00,
2013-08-12 21:19:00,82.7,76.3,30.00,ENE,69,4.0,4.0,81,0.00,,SCT150,0.00,125.00,VWS V14.01,2013-08-13 01:19:00,
2013-08-12 21:24:00,82.7,76.7,30.00,ENE,69,0.0,3.0,82,0.00,,SCT150,0.00,125.00,VWS V14.01,2013-08-13 01:24:00,
2013-08-12 21:29:00,82.6,76.6,30.00,ENE,69,1.0,5.0,82,0.00,,SCT150,0.00,125.00,VWS V14.01,2013-08-13 01:29:00,
2013-08-12 21:34:00,82.5,76.4,30.00,ENE,69,0.0,2.0,82,0.00,,SCT150,0.00,125.00,VWS V14.01,2013-08-13 01:34:00,
2013-08-12 21:39:00,82.5,76.4,30.01,ENE,69,2.0,2.0,82,0.00,,SCT150,0.00,125.00,VWS V14.01,2013-08-13 01:39:00,
2013-08-12 21:44:00,82.4,76.4,30.01,ENE,69,1.0,3.0,82,0.00,,SCT150,0.00,125.00,VWS V14.01,2013-08-13 01:44:00,
2013-08-12 21:49:00,82.4,76.4,30.01,ENE,69,1.0,3.0,82,0.00,,SCT150,0.00,125.00,VWS V14.01,2013-08-13 01:49:00,
2013-08-12 21:54:00,82.4,76.4,30.01,ENE,69,0.0,2.0,82,0.00,,SCT150,0.00,125.00,VWS V14.01,2013-08-13 01:54:00,
2013-08-12 21:59:00,82.4,76.4,30.01,ENE,69,0.0,2.0,82,0.00,,SCT150,0.00,125.00,VWS V14.01,2013-08-13 01:59:00,
2013-08-12 22:04:00,82.3,76.3,30.01,ENE,69,3.0,3.0,82,0.00,,FEW026CU,0.00,125.00,VWS V14.01,2013-08-13 02:04:00,
2013-08-12 22:09:00,82.3,76.6,30.01,ENE,69,0.0,3.0,83,0.00,,FEW026CU,0.00,125.00,VWS V14.01,2013-08-13 02:09:00,
2013-08-12 22:14:00,82.3,76.6,30.01,ENE,69,0.0,3.0,83,0.00,,FEW026CU,0.00,125.00,VWS V14.01,2013-08-13 02:14:00,
2013-08-12 22:19:00,82.3,76.6,30.01,ENE,69,0.0,0.0,83,0.00,,FEW026CU,0.00,125.00,VWS V14.01,2013-08-13 02:19:00,
2013-08-12 22:24:00,82.2,76.5,30.01,ENE,69,1.0,3.0,83,0.00,,FEW026CU,0.00,125.00,VWS V14.01,2013-08-13 02:24:00,
2013-08-12 22:29:00,82.2,76.2,30.02,ENE,69,0.0,2.0,82,0.00,,FEW026CU,0.00,125.00,VWS V14.01,2013-08-13 02:29:00,
2013-08-12 22:34:00,82.1,76.1,30.01,ENE,69,0.0,2.0,82,0.00,,FEW026CU,0.00,125.00,VWS V14.01,2013-08-13 02:34:00,
2013-08-12 22:39:00,82.1,76.1,30.02,ENE,69,1.0,2.0,82,0.00,,FEW026CU,0.00,125.00,VWS V14.01,2013-08-13 02:39:00,
2013-08-12 22:44:00,82.1,76.1,30.02,ENE,69,0.0,1.0,82,0.00,,FEW026CU,0.00,125.00,VWS V14.01,2013-08-13 02:44:00,
2013-08-12 22:49:00,82.0,76.0,30.02,ENE,69,0.0,1.0,82,0.00,,FEW026CU,0.00,125.00,VWS V14.01,2013-08-13 02:49:00,
2013-08-12 22:54:00,82.0,76.0,30.02,ENE,69,0.0,1.0,82,0.00,,FEW026CU,0.00,125.00,VWS V14.01,2013-08-13 02:54:00,
2013-08-12 22:59:00,81.9,75.9,30.02,ENE,69,0.0,1.0,82,0.00,,FEW026CU,0.00,125.00,VWS V14.01,2013-08-13 02:59:00,
2013-08-12 23:04:00,81.8,75.8,30.02,ENE,69,1.0,1.0,82,0.00,,FEW026CU,0.00,125.00,VWS V14.01,2013-08-13 03:04:00,
2013-08-12 23:09:00,81.8,75.8,30.02,ENE,69,1.0,2.0,82,0.00,,FEW026CU,0.00,125.00,VWS V14.01,2013-08-13 03:09:00,
2013-08-12 23:14:00,81.8,75.8,30.02,ENE,69,0.0,1.0,82,0.00,,FEW026CU,0.00,125.00,VWS V14.01,2013-08-13 03:14:00,
2013-08-12 23:19:00,81.7,75.7,30.02,ENE,69,0.0,1.0,82,0.00,,FEW026CU,0.00,125.00,VWS V14.01,2013-08-13 03:19:00,
2013-08-12 23:24:00,81.7,76.0,30.02,ENE,69,0.0,1.0,83,0.00,,FEW026CU,0.00,125.00,VWS V14.01,2013-08-13 03:24:00,
2013-08-12 23:29:00,81.6,75.9,30.02,ENE,69,0.0,1.0,83,0.00,,FEW026CU,0.00,125.00,VWS V14.01,2013-08-13 03:29:00,
2013-08-12 23:34:00,81.6,75.9,30.02,ENE,69,0.0,1.0,83,0.00,,FEW026CU,0.00,125.00,VWS V14.01,2013-08-13 03:34:00,
2013-08-12 23:39:00,81.5,75.8,30.02,ENE,69,0.0,1.0,83,0.00,,FEW026CU,0.00,125.00,VWS V14.01,2013-08-13 03:39:00,
2013-08-12 23:44:00,81.5,75.8,30.02,ENE,69,0.0,1.0,83,0.00,,FEW026CU,0.00,125.00,VWS V14.01,2013-08-13 03:44:00,
2013-08-12 23:49:00,81.4,75.7,30.01,ENE,69,2.0,2.0,83,0.00,,FEW026CU,0.00,125.00,VWS V14.01,2013-08-13 03:49:00,
2013-08-12 23:54:00,81.4,75.7,30.01,ENE,69,0.0,1.0,83,0.00,,FEW026CU,0.00,125.00,VWS V14.01,2013-08-13 03:54:00,
2013-08-12 23:59:00,81.4,75.7,30.01,ENE,69,0.0,0.0,83,0.00,,FEW026CU,0.00,125.00,VWS V14.01,2013-08-13 03:59:00,